Air Resources Laboratory banner image
Air Resources Laboratory web site National Oceanic and Atmospheric Administration (NOAA)

dc roundup


Office: AKQ

ASUS41 KAKQ 212215
RWRAKQ

REGIONAL WEATHER ROUNDUP
NATIONAL WEATHER SERVICE WAKEFIELD VA
600 PM EDT SUN OCT 21 2018

Note: "fair" indicates few or no clouds below 12,000 feet with no
significant weather and/or obstructions to visibility. * = Denotes
station may not report precipitation (e.g., rain,snow,etc.),
thunder or fog.

VAZ042-051-052>054-056-212300-
NORTHERN VIRGINIA

CITY           SKY/WX    TMP DP  RH WIND       PRES   REMARKS
WASH NATIONAL  LGT RAIN  51  30  44 W12       30.17R
DULLES         FAIR      48  30  49 W17       30.18R
FORT BELVOIR   FAIR      49  34  57 W10G20    30.17R
QUANTICO       FAIR      50  31  48 NW13      30.20R
FREDERICKSBRG* FAIR      50  33  50 NW6       30.17F
STAFFORD*      FAIR      49  33  53 NW12      30.22S
WARRENTON      FAIR      49  28  43 NW8       30.18R
CULPEPER*      FAIR      49  28  42 NW8       30.20R
MANASSAS*      FAIR      48  30  49 NW16      30.19R
LEESBURG*      MOCLDY    46  34  61 NW16      30.18S
WINCHESTER     CLOUDY    43  30  61 W10       30.22R
FRONT ROYAL*   FAIR      45  30  57 NW5       30.19R
LURAY*         FAIR      43  30  61 W12       30.21R
$$

VAZ048-049-060>072-079>083-212300-
CENTRAL AND SOUTH CENTRAL VIRGINIA

CITY           SKY/WX    TMP DP  RH WIND       PRES   REMARKS
RICHMOND       FAIR      53  30  41 NW12      30.17R
CHESTERFIELD*  FAIR      52  31  44 NW7       30.18R
PETERSBURG*    FAIR      53  31  43 NW5       30.18R
HANOVER        FAIR      52  31  44 W9        30.18R
TAPPAHANNOCK*  FAIR      51  33  50 CALM      30.18R
QUINTON*       FAIR      52  32  45 NW9       30.16R
CHARLOTTSVILLE FAIR      49  28  44 VRB3      30.19R
GORDONSVILLE*  FAIR      48  30  49 CALM      30.19R
ORANGE*        FAIR      46  30  53 NW8       30.19R
LOUISA*        FAIR      48  31  50 NW8       30.22R
BUMPASS*       FAIR      49  29  46 W7        30.17S
FARMVILLE*     NOT AVBL
CREWE*         FAIR      51  30  43 N3        30.17R
FORT PICKETT*  FAIR      53  32  45 NW7       30.16S
CHASE CITY*    FAIR      52  32  47 W3        30.18R
CLARKSVILLE*   FAIR      52  32  46 N5        30.17F
SOUTH HILL*    FAIR      53  33  46 NW3       30.23R
LAWRENCEVILLE* FAIR      53  33  48 MISG      30.17R
EMPORIA*       NOT AVBL
$$

VAZ088>098-212300-
SOUTHEAST VIRGINIA

CITY           SKY/WX    TMP DP  RH WIND       PRES   REMARKS
NORFOLK        FAIR      55  32  41 VRB6G18   30.15R
VIRGINIA BEACH FAIR      53  31  42 NW15      30.14R
NORFOLK NAVAL  FAIR      54  33  45 N17       30.17R
WEST POINT*    FAIR      52  34  51 NW6       30.18R
SALUDA*        FAIR      51  34  51 NW10G21   30.16R
NEWPORT NEWS   FAIR      53  34  48 N8        30.16R
LANGLEY AFB    FAIR      53  33  46 NW7       30.15R
FORT EUSTIS    FAIR      54  33  44 NW7       30.14R
WILLIAMSBURG*  FAIR      55  34  44 CALM      30.17R
HR EXEC AP*    FAIR      52  34  50 NW3       30.16R
FRANKLIN*      FAIR      53  32  43 NW8       30.17R
US460-WAKEFLD  FAIR      54  32  43 VRB3      30.16R
$$

VAZ020-022-025-037-045-212300-
WEST CENTRAL AND SOUTHWEST VIRGINIA

CITY           SKY/WX    TMP DP  RH WIND       PRES   REMARKS
STAUNTON*      FAIR      44  27  51 W8        30.22R
WAYNESBORO*    FAIR      44  27  50 NW8       30.19R
HOT SPRINGS VA FAIR      37  30  77 W9        30.15S
LYNCHBURG      FAIR      50  29  44 W3        30.19S
DANVILLE       FAIR      53  28  38 N9        30.20R
SOUTH BOSTON*  FAIR      52  29  40 NW8       30.19S
MARTINSVILLE   FAIR      52  28  40 N5        30.22S
ROANOKE        FAIR      50  27  40 NW10      30.23R
BLACKSBURG     FAIR      46  28  50 NW6       30.23S
DUBLIN*        FAIR      48  30  49 NW7       30.21S
MARION*        FAIR      48  29  47 CALM      30.23S
HILLSVILLE*    FAIR      47  24  41 W6        30.18S
RICHLANDS*     FAIR      43  25  49 W6        30.23S
WISE*          FAIR      46  32  57 NW5       30.24S
ABINGDON*      FAIR      51  27  39 NW6       30.24R
$$

MDZ021>025-VAZ099-100-212300-
SOUTHERN MARYLAND AND THE DELMARVA PENINSULA

CITY           SKY/WX    TMP DP  RH WIND       PRES   REMARKS
PATUXENT RIVER FAIR      53  32  44 W14       30.15R
BAY BRIDGE APT FAIR      50  30  46 NW14G22   30.14R
LEONARDTOWN    FAIR      48  32  53 W9        30.17R
DOVER          FAIR      49  29  46 NW15      30.10R
GEORGETOWN     FAIR      51  31  46 VRB5      30.11R
EASTON         PTCLDY    52  30  43 N13G20    30.15R
CAMBRIDGE      MOCLDY    52  30  43 W6G16     30.13R
SALISBURY      FAIR      51  32  48 NW12      30.11R
TANGIER        FAIR      54  37  54 NW24G30   30.15R
OCEAN CITY     FAIR      49  32  52 N8        30.11R
WALLOPS ISLAND FAIR      52  31  44 NW10G20   30.12R
ACCOMACK*      MOCLDY    52  36  54 NW15G22   30.14R
$$

NCZ012>017-030>032-212300-
NORTH CENTRAL AND EASTERN NORTH CAROLINA

CITY           SKY/WX    TMP DP  RH WIND       PRES   REMARKS
ROANOKE RAPIDS FAIR      54  32  43 CALM      30.17R
RALEIGH        FAIR      54  28  36 VRB6      30.19R
ELIZABETH CITY FAIR      55  32  41 NW12      30.15R
AHOSKIE*       FAIR      53  32  44 N3        30.17R
EDENTON*       FAIR      56  36  46 N8        30.17R
CURRITUCK*     FAIR      53  35  50 MISG      30.16R
KILL DEVIL HLS FAIR      53  33  46 N7        30.13R
MANTEO         FAIR      54  35  48 N10       30.14R
CAPE HATTERAS  FAIR      58  37  45 NW9       30.13R
TARBORO*       FAIR      55  34  45 NW7       30.17
GOLDSBORO      FAIR      58  31  36 NW9       30.16R
WASHINGTON     FAIR      56  34  43 NW5       30.16S
GREENVILLE     FAIR      55  34  44 NW7       30.18R
NEW BERN       FAIR      57  34  41 N10       30.17R
WILMINGTON     FAIR      59  31  34 N10       30.17R
$$

VAZ048-212300-
ELSEWHERE

CITY           SKY/WX    TMP DP  RH WIND       PRES   REMARKS
HARRISBURG PA  FAIR      47  26  44 NW12      30.13R
BALTIMORE      FAIR      50  29  44 NW10      30.13R
ANNAPOLIS      FAIR      54  30  40 W10G18    30.13R
ANDREWS AFB    FAIR      49  30  47 NW18G24   30.14R
PHILADELPHIA   FAIR      48  23  37 NW18G28   30.10R
HENDERSON NC   FAIR      49  29  47 NW5       30.19R
GREENSBORO     FAIR      55  28  35 N5        30.19R
ROCKY MOUNT    FAIR      55  32  41 NW9       30.18R
$$

VAZ100-212300-
MARINE

STATION/POSITION TIME  TEMP    WIND        PRES    WAVE   SWELL
                       AIR SEA DIR/SP/G            HT/PER HT/PER
                 (UTC) (F)     (DEG/KT/KT) (MB)    (FT/S) (FT/S)
BRANDYWINE LGT   2136   53     330/ 17/ 29 1018.9R
CAPE MAY NJ      2142   52 59  320/  7/ 18 1018.2R
LEWES DE         2136   51 62  320/ 24/ 29 1018.9R
15NM E FENWICK I 2150      65              1018.5R   5/ 5
OCEAN-CITY-INLET 2136   53 64  330/ 13/ 17 1019.6R
WACHAPREAGUE VA  2136   52 58  290/  2/  9 1020.1R
THOMAS POINT MD  2200   52 64  290/ 14/ 16 1021.4R
GOOSES REEF MD   2200   54 67     CALM     1021.1
COVE POINT MD    2136   51     320/ 13/ 21 1021.1R
SOLOMONS ISLAND  2136   51 66  310/  9/ 16 1020.5R
BISHOPS HEAD MD  2136   52 56  310/ 13/ 22 1020.5R
PINEY POINT MD   2136          320/ 26/ 31   N/A
POTOMAC MD       2200   53 67  310/ 21/ 27 1020.6
CAMBRIDGE MD     2136   52 62              1020.8R
LEWISETTA VA     2136   52 61  330/ 14/ 18 1021.0R
RAPPAHANNOCK LGT 2136          310/ 23/ 27 1021.2R
STINGRAY PT      2200   53 66  350/ 17/ 21 1021.3    2/ 3
YORK RVR RNG VA  2136   54     340/ 19/ 22 1021.3R
YORKTOWN VA      2136   55 67  340/ 14/ 20 1020.6R
DOMINION TERM VA 2136   56     320/ 14/ 19 1020.9R
KIPTOPEKE VA     2136      60  340/ 20/ 26   N/A
CAPE HENRY VA    2136   55     310/ 20/ 23 1018.7R
WILLOUBY STN VA  2136   55     340/ 15/ 20 1020.3R
S CRANEY ISL VA  2136   55     340/ 11/ 17 1020.3R
CAPE HENRY BUOY  2200      70                N/A     6/ 5
1ST LANDING BUOY 2150   56     340/ 17/ 23 1020.5R
64NM E OF VA BCH 2150   56 67  320/ 23/ 29 1019.0R   9/ 8
DUCK PIER NC     2136   55 70  330/ 19/ 23 1019.8R
44100 DUCK FRF   2145      70                N/A     6/ 6
44056 DUCK FRF   2200      71                N/A     6/ 6
OREGON INLET NC  2136   55 64  330/ 11/ 14 1020.1R
HATTERAS NC      2136   58 66  340/ 15/ 19 1019.8R
DIAMOND SHLS NC  2200   59     340/ 17/ 23 1020.3
CAPE LOOKOUT NC  2200          340/ 15/ 20 1021.0R
$$